Colmar, Luxembourg
Current Conditions -  °F | °C
As of 2:50 PM on Wednesday 26 Nov 2014 (Local Time) from ELLX Reporting Station
Broken Clouds Broken Clouds  
Wind Chill: 37°   Ceiling: 600
Heat Index: 41°   Visibility: 2.5mi
Dew Point: 41°   Wind: 6mph
Humidity: 100%   Direction: 110°ESE
Pressure: 29.91"   Gusts: NA
Location:  49.81°N, 6.1°E
Report Text: ELLX 261350Z 11005KT 070V140 4000 BKN006 05/05 Q1013 BECMG 5000
Loading
Personal Weather Stations






























Interactive Weather Map New forecast layout! Learn more

10-Day Weather Forecast

Advertisements
Track Severe Weather on mobile